INDIA1 VIDP-VHHH

Flight info

Callsign INDIA1
Flight time 4h 18m
Altitude 39000
Route LKN7E LKN A201 LSO A599 GULOT W146 XSJ W148 LXI A599 POU R473 SIERA
Aircraft B77W/H-SADE1E2E3FGHIJ2J3J4J5J6J7M1M3P1P2P3RUWXYZ/LB1D1

Departure

Time 2026-04-30 14:34
Airport Indira Gandhi International Airport (VIDP)

Arrival

Time 2026-04-30 18:52
Airport Hong Kong International Airport (VHHH)
Time Latitude Longitude Altitude Speed Heading
2026-04-30 14:22 28.57205 77.11413 727 ft 0 kts 118°
2026-04-30 14:25 28.57215 77.11421 755 ft 0 kts 122°
2026-04-30 14:27 28.57213 77.11424 755 ft 3 kts 122°
2026-04-30 14:28 28.57081 77.11568 751 ft 18 kts 124°
2026-04-30 14:28 28.56974 77.11622 753 ft 22 kts 174°
2026-04-30 14:28 28.56888 77.11632 753 ft 13 kts 183°
2026-04-30 14:28 28.56844 77.11549 752 ft 19 kts 272°
2026-04-30 14:29 28.56849 77.11259 753 ft 20 kts 272°
2026-04-30 14:29 28.56857 77.10943 751 ft 20 kts 271°
2026-04-30 14:30 28.56867 77.10419 751 ft 20 kts 271°
2026-04-30 14:31 28.56871 77.10187 751 ft 20 kts 271°
2026-04-30 14:31 28.56880 77.09871 755 ft 20 kts 271°
2026-04-30 14:31 28.56884 77.09713 752 ft 20 kts 271°
2026-04-30 14:32 28.56892 77.09399 755 ft 20 kts 271°
2026-04-30 14:32 28.56896 77.09240 755 ft 20 kts 271°
2026-04-30 14:32 28.56899 77.09084 751 ft 20 kts 271°
2026-04-30 14:33 28.56902 77.08927 755 ft 20 kts 271°
2026-04-30 14:33 28.56955 77.08747 752 ft 10 kts 14°
2026-04-30 14:33 28.57048 77.08908 754 ft 41 kts 79°
2026-04-30 14:34 28.57044 77.09359 752 ft 87 kts 91°
2026-04-30 14:34 28.57022 77.10468 792 ft 189 kts 91°
2026-04-30 14:34 28.57012 77.12147 1474 ft 233 kts 91°
2026-04-30 14:34 28.56969 77.14047 2641 ft 242 kts 94°
2026-04-30 14:35 28.56838 77.18054 4628 ft 263 kts 92°
2026-04-30 14:35 28.56777 77.20182 5583 ft 276 kts 91°
2026-04-30 14:35 28.56719 77.22412 6500 ft 287 kts 90°
2026-04-30 14:36 28.56662 77.24706 7508 ft 293 kts 90°
2026-04-30 14:36 28.56606 77.27021 8506 ft 300 kts 90°
2026-04-30 14:36 28.56550 77.29433 9460 ft 309 kts 90°
2026-04-30 14:36 28.56163 77.31859 10193 ft 320 kts 112°
2026-04-30 14:37 28.55116 77.34204 10602 ft 348 kts 119°
2026-04-30 14:37 28.53855 77.36703 10839 ft 381 kts 120°
2026-04-30 14:37 28.52473 77.39392 11305 ft 403 kts 120°
2026-04-30 14:37 28.51046 77.42192 12141 ft 413 kts 120°
2026-04-30 14:38 28.49611 77.45047 13118 ft 419 kts 119°
2026-04-30 14:38 28.48173 77.47947 14045 ft 425 kts 118°
2026-04-30 14:38 28.46724 77.50899 14958 ft 430 kts 118°
2026-04-30 14:38 28.45266 77.53888 15904 ft 434 kts 118°
2026-04-30 14:39 28.43797 77.56911 16835 ft 440 kts 118°
2026-04-30 14:39 28.42323 77.59945 17733 ft 446 kts 119°
2026-04-30 14:39 28.40818 77.63047 18534 ft 452 kts 119°
2026-04-30 14:40 28.37743 77.69371 20057 ft 463 kts 120°
2026-04-30 14:40 28.36176 77.72589 20831 ft 468 kts 120°
2026-04-30 14:40 28.34588 77.75847 21571 ft 474 kts 120°
2026-04-30 14:40 28.32985 77.79133 22293 ft 479 kts 120°
2026-04-30 14:41 28.31360 77.82462 22993 ft 484 kts 120°
2026-04-30 14:41 28.29715 77.85826 23608 ft 490 kts 120°
2026-04-30 14:41 28.28057 77.89217 24149 ft 494 kts 120°
2026-04-30 14:41 28.26381 77.92642 24716 ft 498 kts 120°
2026-04-30 14:42 28.24711 77.96052 25282 ft 503 kts 120°
2026-04-30 14:42 28.23008 77.99526 25833 ft 507 kts 120°
2026-04-30 14:42 28.21284 78.03041 26363 ft 511 kts 120°
2026-04-30 14:42 28.19567 78.06540 26880 ft 515 kts 120°
2026-04-30 14:43 28.17816 78.10102 27388 ft 519 kts 120°
2026-04-30 14:43 28.16049 78.13696 27891 ft 523 kts 119°
2026-04-30 14:43 28.14271 78.17308 28363 ft 527 kts 119°
2026-04-30 14:43 28.12479 78.20946 28803 ft 531 kts 119°
2026-04-30 14:44 28.10670 78.24615 29233 ft 534 kts 119°
2026-04-30 14:44 28.08852 78.28298 29635 ft 537 kts 119°
2026-04-30 14:44 28.07022 78.32002 29970 ft 541 kts 119°
2026-04-30 14:44 28.05175 78.35738 30182 ft 546 kts 119°
2026-04-30 14:45 28.03311 78.39506 30384 ft 551 kts 119°
2026-04-30 14:45 28.01435 78.43294 30636 ft 554 kts 118°
2026-04-30 14:45 27.99544 78.47109 30903 ft 556 kts 118°
2026-04-30 14:45 27.97646 78.50935 31186 ft 559 kts 118°
2026-04-30 14:46 27.95763 78.54725 31444 ft 561 kts 118°
2026-04-30 14:46 27.93842 78.58590 31695 ft 564 kts 118°
2026-04-30 14:46 27.91913 78.62467 31944 ft 567 kts 118°
2026-04-30 14:46 27.89974 78.66360 32209 ft 569 kts 118°
2026-04-30 14:47 27.88027 78.70267 32464 ft 571 kts 117°
2026-04-30 14:47 27.86071 78.74186 32724 ft 573 kts 117°
2026-04-30 14:47 27.84104 78.78125 32981 ft 575 kts 117°
2026-04-30 14:47 27.82127 78.82079 33233 ft 578 kts 117°
2026-04-30 14:48 27.80150 78.86031 33496 ft 580 kts 117°
2026-04-30 14:48 27.78159 78.90006 33725 ft 582 kts 117°
2026-04-30 14:48 27.76166 78.93983 33987 ft 582 kts 117°
2026-04-30 14:48 27.74171 78.97955 34336 ft 580 kts 117°
2026-04-30 14:49 27.72183 79.01910 34749 ft 577 kts 117°
2026-04-30 14:49 27.70207 79.05838 35136 ft 575 kts 117°
2026-04-30 14:49 27.68235 79.09757 35509 ft 573 kts 117°
2026-04-30 14:49 27.66268 79.13661 35864 ft 571 kts 117°
2026-04-30 14:50 27.62380 79.21372 36671 ft 567 kts 117°
2026-04-30 14:50 27.60406 79.25281 37089 ft 565 kts 117°
2026-04-30 14:51 27.56550 79.32907 37775 ft 562 kts 117°
2026-04-30 14:51 27.54610 79.36739 38080 ft 562 kts 117°
2026-04-30 14:51 27.50732 79.44389 38639 ft 562 kts 117°
2026-04-30 14:52 27.48789 79.48218 38699 ft 565 kts 117°
2026-04-30 14:52 27.42942 79.59710 38747 ft 560 kts 117°
2026-04-30 14:53 27.37155 79.71056 38769 ft 558 kts 117°
2026-04-30 14:54 27.29397 79.86225 38771 ft 561 kts 117°
2026-04-30 14:55 27.23535 79.97650 38781 ft 564 kts 117°
2026-04-30 14:56 27.15649 80.12972 38778 ft 568 kts 117°
2026-04-30 14:57 27.09694 80.24506 38776 ft 570 kts 117°
2026-04-30 14:58 27.01718 80.39905 38755 ft 571 kts 117°
2026-04-30 14:58 26.95759 80.51376 38748 ft 569 kts 117°
2026-04-30 15:00 26.85830 80.70424 38744 ft 564 kts 117°
2026-04-30 15:01 26.77991 80.85442 38740 ft 560 kts 115°
2026-04-30 15:01 26.73649 80.97448 38745 ft 551 kts 101°
2026-04-30 15:02 26.71557 81.05696 38746 ft 552 kts 101°
2026-04-30 15:03 26.66199 81.26323 38759 ft 555 kts 102°
2026-04-30 15:04 26.60700 81.47022 38759 ft 556 kts 102°
2026-04-30 15:06 26.55186 81.67691 38769 ft 556 kts 103°
2026-04-30 15:07 26.50744 81.84242 38771 ft 556 kts 103°
2026-04-30 15:08 26.46287 82.00765 38758 ft 555 kts 103°
2026-04-30 15:09 26.40717 82.21301 38755 ft 553 kts 103°
2026-04-30 15:10 26.36245 82.37695 38748 ft 551 kts 103°
2026-04-30 15:11 26.29539 82.62129 38748 ft 548 kts 103°
2026-04-30 15:13 26.23959 82.82327 38749 ft 546 kts 103°
2026-04-30 15:14 26.16101 83.10564 38751 ft 544 kts 104°
2026-04-30 15:17 26.05968 83.46640 38754 ft 543 kts 104°
2026-04-30 15:19 25.97283 83.77315 38754 ft 542 kts 104°
2026-04-30 17:39 24.09337 105.75012 39111 ft 532 kts 103°
2026-04-30 17:42 24.01563 106.14537 39101 ft 531 kts 102°
2026-04-30 17:43 23.97581 106.34253 39105 ft 531 kts 102°
2026-04-30 17:44 23.92784 106.57846 39116 ft 531 kts 101°
2026-04-30 17:47 23.90084 106.93902 39117 ft 528 kts 93°
2026-04-30 17:48 23.88173 107.21899 39126 ft 527 kts 93°
2026-04-30 17:50 23.85944 107.53807 39129 ft 527 kts 93°
2026-04-30 17:52 23.84325 107.76387 39133 ft 526 kts 93°
2026-04-30 17:54 23.82307 108.12271 39136 ft 526 kts 92°
2026-04-30 17:56 23.80515 108.44161 39132 ft 526 kts 92°
2026-04-30 17:58 23.79127 108.68008 39130 ft 525 kts 92°
2026-04-30 18:00 23.77223 108.99707 39125 ft 523 kts 92°
2026-04-30 18:01 23.75461 109.19473 39129 ft 524 kts 101°
2026-04-30 18:02 23.70617 109.42729 39130 ft 525 kts 101°
2026-04-30 18:04 23.65860 109.66083 39129 ft 526 kts 101°
2026-04-30 18:06 23.59446 109.97212 39133 ft 526 kts 102°
2026-04-30 18:08 23.53785 110.24429 39130 ft 528 kts 102°
2026-04-30 18:10 23.47338 110.55771 39130 ft 531 kts 102°
2026-04-30 18:11 23.41636 110.83312 39133 ft 534 kts 103°
2026-04-30 18:13 23.37448 111.02966 39132 ft 535 kts 103°
2026-04-30 18:14 23.33293 111.22705 39135 ft 536 kts 103°
2026-04-30 18:15 23.28517 111.46350 39112 ft 513 kts 103°
2026-04-30 18:16 23.27012 111.53715 39132 ft 497 kts 103°
2026-04-30 18:16 23.25459 111.61022 39136 ft 494 kts 104°
2026-04-30 18:17 23.23892 111.68292 39143 ft 494 kts 104°
2026-04-30 18:18 23.21552 111.79197 39140 ft 494 kts 104°
2026-04-30 18:18 23.20001 111.86474 39144 ft 495 kts 104°
2026-04-30 18:19 23.18497 111.93741 39150 ft 496 kts 104°
2026-04-30 18:19 23.16985 112.01066 39149 ft 497 kts 104°
2026-04-30 18:20 23.15455 112.08425 39138 ft 498 kts 104°
2026-04-30 18:20 23.13923 112.15762 39136 ft 498 kts 104°
2026-04-30 18:21 23.12387 112.23096 39138 ft 498 kts 104°
2026-04-30 18:21 23.10850 112.30421 39142 ft 497 kts 104°
2026-04-30 18:22 23.09322 112.37690 39130 ft 496 kts 104°
2026-04-30 18:22 23.07074 112.48655 39132 ft 495 kts 101°
2026-04-30 18:23 23.06404 112.56107 39139 ft 495 kts 94°
2026-04-30 18:23 23.05972 112.63572 39139 ft 495 kts 94°
2026-04-30 18:24 23.05261 112.74767 39131 ft 494 kts 95°
2026-04-30 18:25 23.04756 112.82167 39131 ft 494 kts 95°
2026-04-30 18:25 23.03988 112.93315 38959 ft 497 kts 95°
2026-04-30 18:26 23.03468 113.00847 37839 ft 496 kts 95°
2026-04-30 18:26 23.03211 113.04569 37377 ft 491 kts 95°
2026-04-30 18:26 23.02955 113.08245 36943 ft 486 kts 95°
2026-04-30 18:27 23.01547 113.15229 36104 ft 469 kts 121°
2026-04-30 18:27 22.99644 113.18049 35689 ft 459 kts 137°
2026-04-30 18:28 22.94520 113.21837 34755 ft 443 kts 163°
2026-04-30 18:28 22.91598 113.22868 34325 ft 439 kts 166°
2026-04-30 18:28 22.85763 113.24770 33333 ft 435 kts 166°
2026-04-30 18:29 22.82881 113.25727 32864 ft 433 kts 165°
2026-04-30 18:29 22.74335 113.28662 31531 ft 426 kts 165°
2026-04-30 18:30 22.69661 113.30285 30803 ft 422 kts 165°
2026-04-30 18:30 22.63140 113.32544 29704 ft 419 kts 165°
2026-04-30 18:31 22.60372 113.33502 29222 ft 416 kts 165°
2026-04-30 18:31 22.54890 113.35401 28306 ft 411 kts 166°
2026-04-30 18:32 22.49470 113.37279 27418 ft 406 kts 166°
2026-04-30 18:32 22.46780 113.38210 26989 ft 404 kts 166°
2026-04-30 18:32 22.41442 113.40056 26128 ft 401 kts 166°
2026-04-30 18:33 22.38786 113.40975 25698 ft 400 kts 166°
2026-04-30 18:33 22.33506 113.42798 24822 ft 398 kts 166°
2026-04-30 18:33 22.30863 113.43711 24392 ft 397 kts 166°
2026-04-30 18:34 22.28236 113.44617 23963 ft 396 kts 166°
2026-04-30 18:34 22.22986 113.46428 23013 ft 394 kts 167°
2026-04-30 18:34 22.20391 113.47335 22292 ft 405 kts 166°
2026-04-30 18:35 22.17587 113.48342 21831 ft 442 kts 165°
2026-04-30 18:35 22.14590 113.49431 21485 ft 462 kts 165°
2026-04-30 18:35 22.11528 113.50554 21126 ft 465 kts 165°
2026-04-30 18:36 22.05468 113.52775 20671 ft 453 kts 165°
2026-04-30 18:36 22.02514 113.53849 20520 ft 446 kts 165°
2026-04-30 18:36 21.96682 113.56024 19884 ft 443 kts 162°
2026-04-30 18:37 21.93838 113.57304 19182 ft 443 kts 160°
2026-04-30 18:37 21.91015 113.58662 18413 ft 443 kts 159°
2026-04-30 18:37 21.88206 113.60017 17613 ft 440 kts 160°
2026-04-30 18:37 21.85415 113.61336 16868 ft 436 kts 160°
2026-04-30 18:38 21.82643 113.62620 16205 ft 430 kts 160°
2026-04-30 18:38 21.79910 113.63877 15545 ft 424 kts 160°
2026-04-30 18:38 21.77283 113.65168 14759 ft 417 kts 153°
2026-04-30 18:38 21.75062 113.67193 14059 ft 422 kts 131°
2026-04-30 18:39 21.73585 113.69906 13429 ft 421 kts 112°
2026-04-30 18:39 21.72965 113.72929 13199 ft 409 kts 94°
2026-04-30 18:39 21.73163 113.75908 13084 ft 393 kts 77°
2026-04-30 18:39 21.74054 113.78608 12987 ft 376 kts 63°
2026-04-30 18:40 21.75436 113.80913 12881 ft 358 kts 46°
2026-04-30 18:40 21.77206 113.82674 12768 ft 338 kts 38°
2026-04-30 18:40 21.78950 113.84308 12681 ft 327 kts 39°
2026-04-30 18:40 21.80625 113.85915 12539 ft 318 kts 39°
2026-04-30 18:41 21.81710 113.86968 12284 ft 318 kts 39°
2026-04-30 18:41 21.83368 113.88468 11703 ft 303 kts 28°
2026-04-30 18:41 21.85275 113.89198 11165 ft 285 kts
2026-04-30 18:41 21.87233 113.89112 10677 ft 281 kts 344°
2026-04-30 18:42 21.89084 113.88468 10189 ft 279 kts 333°
2026-04-30 18:42 21.92577 113.86707 9120 ft 275 kts 330°
2026-04-30 18:42 21.94296 113.85815 8578 ft 273 kts 330°
2026-04-30 18:45 22.11294 113.77283 4956 ft 268 kts 334°
2026-04-30 18:45 22.12961 113.76451 4673 ft 256 kts 335°
2026-04-30 18:45 22.14516 113.75675 4378 ft 238 kts 335°
2026-04-30 18:46 22.15957 113.74957 4125 ft 219 kts 335°
2026-04-30 18:46 22.17297 113.74288 3933 ft 207 kts 336°
2026-04-30 18:46 22.18579 113.73649 3782 ft 200 kts 336°
2026-04-30 18:46 22.19837 113.73021 3553 ft 198 kts 336°
2026-04-30 18:47 22.21111 113.72562 3329 ft 190 kts
2026-04-30 18:47 22.22321 113.72989 3154 ft 185 kts 33°
2026-04-30 18:47 22.23419 113.73759 2984 ft 191 kts 34°
2026-04-30 18:47 22.24539 113.74532 2766 ft 191 kts 34°
2026-04-30 18:48 22.25651 113.75306 2557 ft 187 kts 36°
2026-04-30 18:48 22.26469 113.76316 2343 ft 177 kts 66°
2026-04-30 18:48 22.26990 113.77544 2196 ft 184 kts 64°
2026-04-30 18:48 22.27509 113.78791 1992 ft 177 kts 69°
2026-04-30 18:49 22.27915 113.79975 1832 ft 159 kts 71°
2026-04-30 18:49 22.28264 113.81049 1685 ft 143 kts 71°
2026-04-30 18:49 22.28581 113.82031 1559 ft 139 kts 71°
2026-04-30 18:49 22.28896 113.83006 1404 ft 136 kts 71°
2026-04-30 18:50 22.29207 113.83970 1193 ft 136 kts 71°
2026-04-30 18:50 22.29518 113.84932 1007 ft 136 kts 71°
2026-04-30 18:50 22.29828 113.85894 834 ft 136 kts 71°
2026-04-30 18:50 22.30133 113.86862 669 ft 136 kts 71°
2026-04-30 18:51 22.30419 113.87728 512 ft 134 kts 69°
2026-04-30 18:51 22.30736 113.88685 303 ft 135 kts 70°
2026-04-30 18:51 22.31037 113.89635 108 ft 133 kts 70°
2026-04-30 18:51 22.31338 113.90565 41 ft 126 kts 70°
2026-04-30 18:52 22.31574 113.91285 43 ft 72 kts 71°
2026-04-30 18:52 22.31736 113.91785 42 ft 70 kts 70°
2026-04-30 18:52 22.31855 113.92152 42 ft 36 kts 72°
2026-04-30 18:52 22.31927 113.92406 42 ft 35 kts 79°
2026-04-30 18:53 22.31915 113.92640 42 ft 22 kts 105°
2026-04-30 18:53 22.31892 113.92763 42 ft 17 kts 108°
2026-04-30 18:53 22.31801 113.92838 42 ft 17 kts 155°
2026-04-30 18:53 22.31691 113.92874 42 ft 13 kts 190°
2026-04-30 18:54 22.31647 113.92805 42 ft 8 kts 251°
2026-04-30 18:54 22.31643 113.92795 42 ft 0 kts 251°